Weather History for Crestview, FL

Change the Weather History Date:

Saturday, December 29, 2012

  Actual Average Record
Temperature  
Mean Temperature 49 °F -  
Max Temperature 62 °F - - ()
Min Temperature 36 °F - - ()
Degree Days  
Heating Degree Days 16    
Moisture  
Dew Point 41 °F    
Average Humidity 76    
Maximum Humidity 100    
Minimum Humidity 52    
Precipitation  
Precipitation 0.01 in - - ()
Sea Level Pressure  
Sea Level Pressure 30.06 in    
Wind  
Wind Speed 12 mph (NW)    
Max Wind Speed 20 mph    
Max Gust Speed 30 mph    
Visibility 10 miles    
Events      
T = Trace of Precipitation, MM = Missing Value Source: NWS Daily Summary

Daily Weather History Graph

Daily Weather History Graph

Search for Another Location

Airport:

Trip Planner

Search our weather history database for the weather conditions in past years. The results will help you decide how hot, cold, wet, or windy it might be!

Date:

Astronomy

Dec. 29, 2012 Rise Set
Actual Time 6:42 AM CST 4:54 PM CST
Civil Twilight 6:16 AM CST 5:20 PM CST
Nautical Twilight 5:46 AM CST 5:50 PM CST
Astronomical Twilight 5:16 AM CST 6:20 PM CST
Moon 6:19 PM CST (12/29) 7:21 AM CST (12/29)
Length of Visible Light 11h 04m
Length of Day
10h 11m
Full, 98% of the Moon is Illuminated
Dec 29
Full
Jan 4
Last Quarter
Jan 11
New
Jan 18
First Quarter
Jan 26
Full

Hourly Weather History & Observations

Time (CST) Temp. Windchill Dew Point Humidity Pressure Visibility Wind Dir Wind Speed Gust Speed Precip Events Conditions
12:02 AM 60.8 °F - 60.8 °F 100% 29.77 in 10.0 mi WNW 4.6 mph - N/A   Scattered Clouds
12:55 AM 61.9 °F - 61.5 °F 99% 29.78 in 10.0 mi WNW 6.9 mph - 0.00 in   Mostly Cloudy
1:01 AM 62.6 °F - 62.6 °F 100% 29.79 in 10.0 mi WNW 9.2 mph - N/A   Overcast
1:08 AM 62.6 °F - 62.6 °F 100% 29.79 in 10.0 mi WNW 11.5 mph - N/A   Mostly Cloudy
1:55 AM 60.8 °F - 59.2 °F 94% 29.82 in 10.0 mi WNW 12.7 mph - 0.01 in   Overcast
2:18 AM 59.0 °F - 57.2 °F 94% 29.83 in 10.0 mi NW 16.1 mph 25.3 mph N/A   Overcast
2:31 AM 57.2 °F - 55.4 °F 94% 29.85 in 10.0 mi WNW 15.0 mph 21.9 mph N/A   Overcast
2:55 AM 55.8 °F - 52.7 °F 89% 29.86 in 10.0 mi NW 17.3 mph 28.8 mph N/A   Overcast
3:03 AM 55.4 °F - 51.8 °F 88% 29.87 in 10.0 mi NW 18.4 mph 29.9 mph N/A   Overcast
3:44 AM 53.6 °F - 48.2 °F 82% 29.89 in 10.0 mi NW 18.4 mph - N/A   Overcast
3:55 AM 52.5 °F - 47.3 °F 82% 29.89 in 10.0 mi NW 12.7 mph 25.3 mph N/A   Overcast
4:37 AM 51.8 °F - 46.4 °F 82% 29.92 in 10.0 mi NW 13.8 mph - N/A   Overcast
4:49 AM 51.8 °F - 44.6 °F 76% 29.94 in 10.0 mi WNW 13.8 mph 23.0 mph N/A   Overcast
4:55 AM 50.9 °F - 44.6 °F 79% 29.94 in 10.0 mi NW 16.1 mph 23.0 mph N/A   Overcast
5:55 AM 49.1 °F - 42.8 °F 79% 29.99 in 10.0 mi NNW 18.4 mph 24.2 mph N/A   Overcast
6:55 AM 46.8 °F - 39.4 °F 75% 30.04 in 10.0 mi NNW 15.0 mph - N/A   Overcast
7:55 AM 46.0 °F 39.9 °F 39.7 °F 79% 30.06 in 10.0 mi NW 13.8 mph 19.6 mph N/A   Overcast
8:55 AM 46.4 °F 41.1 °F 39.6 °F 77% 30.10 in 10.0 mi NW 11.5 mph - N/A   Overcast
9:15 AM 46.4 °F 40.7 °F 39.2 °F 76% 30.11 in 10.0 mi NNW 12.7 mph - N/A   Overcast
9:55 AM 44.1 °F 38.1 °F 37.2 °F 77% 30.13 in 10.0 mi NW 11.5 mph 25.3 mph N/A   Overcast
10:03 AM 44.6 °F 37.2 °F 35.6 °F 71% 30.13 in 10.0 mi NW 17.3 mph - N/A   Overcast
10:55 AM 44.4 °F 37.5 °F 35.2 °F 70% 30.12 in 10.0 mi NW 15.0 mph 19.6 mph N/A   Overcast
11:55 AM 44.4 °F 36.4 °F 34.0 °F 67% 30.13 in 10.0 mi NNW 19.6 mph 24.2 mph N/A   Overcast
12:55 PM 47.8 °F - 34.3 °F 60% 30.12 in 10.0 mi WNW 16.1 mph - N/A   Mostly Cloudy
1:36 PM 48.2 °F - 33.8 °F 58% 30.12 in 10.0 mi NW 17.3 mph 21.9 mph N/A   Scattered Clouds
1:55 PM 47.8 °F - 33.1 °F 57% 30.12 in 10.0 mi NNW 15.0 mph 24.2 mph N/A   Partly Cloudy
2:55 PM 47.8 °F - 32.5 °F 55% 30.14 in 10.0 mi NW 12.7 mph - N/A   Clear
3:55 PM 47.8 °F - 31.1 °F 52% 30.17 in 10.0 mi NW 15.0 mph 20.7 mph N/A   Clear
4:55 PM 44.2 °F 38.0 °F 30.7 °F 59% 30.20 in 10.0 mi NNW 12.7 mph - N/A   Clear
5:55 PM 41.2 °F 36.6 °F 30.7 °F 66% 30.22 in 10.0 mi NNW 6.9 mph - N/A   Clear
6:55 PM 39.6 °F 34.0 °F 30.6 °F 70% 30.26 in 10.0 mi NNW 8.1 mph - N/A   Clear
7:55 PM 38.8 °F 32.1 °F 28.6 °F 67% 30.29 in 10.0 mi NNW 10.4 mph - N/A   Clear
8:55 PM 37.4 °F 32.1 °F 28.6 °F 70% 30.32 in 10.0 mi NW 6.9 mph - N/A   Clear
9:55 PM 36.3 °F 29.5 °F 27.9 °F 71% 30.33 in 10.0 mi NNW 9.2 mph - N/A   Clear
10:55 PM 36.0 °F 30.3 °F 28.0 °F 73% 30.35 in 10.0 mi NW 6.9 mph - N/A   Mostly Cloudy
11:38 PM 37.4 °F 32.1 °F 28.4 °F 70% 30.34 in 10.0 mi NNW 6.9 mph - N/A   Overcast
11:55 PM 37.4 °F 28.9 °F 27.3 °F 67% 30.35 in 10.0 mi NNW 13.8 mph - N/A   Overcast